Showing default

QIANFAN-33, 61566

Orbit data source: Space-Track

QIANFAN-33, 61566 is a Chinese payload satellite in LEO that was launched on Tue, 15 Oct 2024 UTC via a CHANG ZHENG 6A launch vehicle from the Taiyaun Space Center, China (TSC). Payload-class satellites include a variety of spacecraft equipped with specific instruments for various scientific and technological missions. These include communications satellites like Starlink; space stations such as the ISS; scientific satellites like the Hubble; Earth observation satellites from companies like Planet Labs, Umbra, and HawkEye 360; GPS; miniature CubeSats for education and research; and military/defense satellites.

Loading next visibility...
Identifier
61566, 2024-185Q
Orbit
LEO
Country
Flag of CNCN / PRC
Related business
Manufacturer
GESIH/SECM
Mission
Operational Commercial Communications
Bus & Motor
QIANFAN, Unknown motor
Mass
267 kg wet, ~267 kg dry
Launch date (UTC)
2024-10-15 (11 months ago)
Launch vehicle
CHANG ZHENG 6A
Launch site
Taiyaun Space Center, China (TSC)
Object type
Payload
Rocket body
Debris
Shape & HBR
Box + 1 Pan, 5.0 m
Radar Cross Section
13.200 m², Large (>1 m²)

Expand to show TLE details & history
Last TLE update: 14 hours ago

TLE from 14 hours ago
0 QIANFAN-33
1 61566U 24185Q   25258.27035229  .00000414  00000-0  29005-3 0  9994
2 61566  88.9733  88.6808 0005088 232.3437 127.7279 13.96435954 56811
Epoch: 2025-09-15T06:29Z
TLE epoch observation values (Epoch: 2025-09-15T06:29:18.437Z)
Latitude
-0.00001°
Longitude
-3.12344°
Altitude
911.452 km
Speed
7.395 km/s
True Right ascension
05h 54m 43s
True Declination
0° 00' 00"
Sunlit
Object was in daylight at epoch
Visualization orbit readout
Latitude
Unknown
Longitude
Unknown
Altitude
Unknown
Speed
Unknown
Apparent Right ascension
Unknown
Apparent Declination
Unknown
Sunlit
N/A
Visualization observer readout
Local Sidereal Time
12:39:31
Azimuth
Unknown
Elevation
Unknown
Doppler factor
Unknown
Orbital elements
Apogee altitude
906.853 km
Perigee altitude
899.444 km
Semi-major axis
7,281.285 km
Eccentricity
0.00051
Inclination
88.9733°
RAAN
88.6808°
Arg. of periapsis
232.3437°
True anomaly
127.774°
Mean anomaly
127.7279°
Eccentric anomaly
127.75095°
Mean motion
3.49326 °/min
Orbital period
103.06 mins
BSTAR
0.00029005
Loading maneuver chart data...
Computing Atmospheric mass density...
Loading historical data...
Loading historical data...
Loading historical data...
Loading historical data...
Loading historical data...
Loading historical data...
Loading historical data...

Documentation

Showing up to 5 results
|